Location: Lake Sonoma
(38.7200°N, 123.0564°W)
Time: 18:07:04
(UTC-07:00)

ISS - All Passes

Search period start: 28 March 2015 00:00
Search period end: 07 April 2015 00:00
Orbit: 396 x 406 km, 51.6° (Epoch: 28 March)

Date Brightness Start Highest point End Pass type
(mag) Time Alt. Az. Time Alt. Az. Time Alt. Az.
28 Mar - 00:58:11 10° W 01:00:58 25° NNW 01:03:45 10° NNE night (unlit)
28 Mar - 04:15:21 10° N 04:15:54 10° NNE 04:16:30 10° NNE visible
28 Mar - 05:50:11 10° NW 05:53:07 31° NNE 05:56:04 10° E visible
28 Mar - 07:26:43 10° WNW 07:29:27 25° SW 07:32:09 10° S daylight
28 Mar - 22:29:02 10° S 22:31:16 18° SE 22:33:35 10° E night (unlit)
29 Mar - 00:04:21 10° WSW 00:07:29 43° NNW 00:10:36 10° NE night (unlit)
29 Mar - 01:43:16 10° NW 01:44:34 12° NNW 01:45:49 10° N night (unlit)
29 Mar - 04:57:06 10° NNW 04:59:34 20° NNE 05:02:04 10° ENE visible
29 Mar - 06:33:01 10° WNW 06:36:12 54° SW 06:39:20 10° SE visible
29 Mar - 23:10:47 10° SW 23:14:02 87° NW 23:17:19 10° NE night (unlit)
30 Mar - 00:48:45 10° WNW 00:50:52 16° NNW 00:52:56 10° NNE night (unlit)
30 Mar - 04:04:06 10° NNW 04:05:55 14° NNE 04:07:47 10° NE visible
30 Mar - 05:39:36 10° NW 05:42:49 70° NE 05:46:02 10° ESE visible
30 Mar - 07:18:07 10° WSW 07:18:51 10° SW 07:19:26 10° SW daylight
30 Mar - 22:17:35 10° SSW 22:20:40 43° SE 22:23:47 10° ENE night (unlit)
30 Mar - 23:54:31 10° W 23:57:12 23° NNW 23:59:52 10° NNE night (unlit)
31 Mar - 03:11:16 10° N 03:12:10 11° NNE 03:13:07 10° NNE night (unlit)
31 Mar - 04:46:18 10° NW 04:49:19 36° NNE 04:52:21 10° ESE visible
31 Mar - 06:23:02 10° W 06:25:36 21° SW 06:28:06 10° S visible
31 Mar - 21:24:51 10° S 21:27:21 21° SE 21:29:54 10° E night (unlit)
31 Mar - 23:00:31 10° WSW 23:03:36 38° NNW 23:06:40 10° NE night (unlit)
01 Apr - 00:39:40 10° NNW 00:40:44 11° NNW 00:41:46 10° N night (unlit)
01 Apr - 03:53:06 10° NNW 03:55:43 22° NNE 03:58:20 10° E visible
01 Apr - 05:29:09 10° WNW 05:32:15 45° SW 05:35:20 10° SSE visible
01 Apr - 20:33:48 10° SE 20:34:03 10° SE 20:34:26 10° ESE visible
01 Apr - 22:06:48 10° SW 22:10:04 74° NW 22:13:19 10° NE visible
01 Apr - 23:44:58 10° WNW 23:46:56 15° NNW 23:48:51 10° NNE night (unlit)
02 Apr - 02:59:59 10° NNW 03:01:59 15° NNE 03:04:00 10° ENE night (unlit)
02 Apr - 04:35:34 10° NW 04:38:49 83° NE 04:42:02 10° SE visible
02 Apr - 21:13:25 10° SW 21:16:35 51° SE 21:19:46 10° ENE visible
02 Apr - 22:50:35 10° WNW 22:53:10 21° NNW 22:55:43 10° NNE night (unlit)
03 Apr - 02:07:00 10° N 02:08:09 11° NNE 02:09:21 10° NE night (unlit)
03 Apr - 03:42:10 10° NW 03:45:15 41° NNE 03:48:20 10° ESE night (unlit)
03 Apr - 05:19:06 10° W 05:21:28 18° SW 05:23:45 10° S visible
03 Apr - 20:20:28 10° S 20:23:09 24° SE 20:25:53 10° ENE visible
03 Apr - 21:56:27 10° W 21:59:27 33° NNW 22:02:28 10° NE visible
03 Apr - 23:35:50 10° NNW 23:36:39 11° NNW 23:37:25 10° N night (unlit)
04 Apr - 02:48:51 10° NNW 02:51:34 24° NNE 02:54:18 10° E night (unlit)
04 Apr - 04:25:01 10° WNW 04:28:03 38° SW 04:31:03 10° SSE night (unlit)
04 Apr - 19:28:30 10° SSE 19:29:46 12° SE 19:31:07 10° ESE daylight
04 Apr - 21:02:35 10° WSW 21:05:49 64° NW 21:09:04 10° NE visible
04 Apr - 22:40:57 10° NW 22:42:45 14° NNW 22:44:30 10° NNE visible
05 Apr - 01:55:38 10° NNW 01:57:47 16° NNE 01:59:57 10° ENE night (unlit)
05 Apr - 03:31:18 10° NW 03:34:32 84° SW 03:37:46 10° SE night (unlit)
05 Apr - 20:09:01 10° SW 20:12:14 60° SE 20:15:28 10° ENE visible
05 Apr - 21:46:24 10° WNW 21:48:52 19° NNW 21:51:19 10° NNE visible
06 Apr - 01:02:30 10° N 01:03:52 12° NNE 01:05:16 10° NE night (unlit)
06 Apr - 02:37:46 10° NW 02:40:55 47° NE 02:44:03 10° ESE night (unlit)
06 Apr - 04:14:57 10° W 04:17:03 16° SW 04:19:05 10° S night (unlit)
06 Apr - 19:15:52 10° SSW 19:18:42 28° SE 19:21:34 10° ENE daylight
06 Apr - 20:52:07 10° W 20:55:03 30° NNW 20:58:00 10° NNE visible
06 Apr - 22:31:49 10° NNW 22:32:17 10° N 22:32:44 10° N visible
